Weather History for KFWN - December, 2012

Change the Weather History Date:

Sunday, December 30, 2012

  Actual Average Record
Temperature  
Mean Temperature 28 °F -  
Max Temperature 32 °F 36 °F 70 °F (1984)
Min Temperature 21 °F 17 °F -10 °F (1962)
Degree Days  
Heating Degree Days 36    
Moisture  
Dew Point 15 °F    
Average Humidity 56    
Maximum Humidity 69    
Minimum Humidity 40    
Precipitation  
Precipitation 0.00 in - - ()
Sea Level Pressure  
Sea Level Pressure 29.92 in    
Wind  
Wind Speed 9 mph (NW)    
Max Wind Speed 16 mph    
Max Gust Speed 32 mph    
Visibility 10 miles    
Events      
Averages and records for this station are not official NWS values.
T = Trace of Precipitation, MM = Missing Value Source: NWS Daily Summary

Daily Weather History Graph

Daily Weather History Graph

Search for Another Location

Airport or City:

Trip Planner

Search our weather history database for the weather conditions in past years. The results will help you decide how hot, cold, wet, or windy it might be!

Date:

Astronomy

Dec. 30, 2012 Rise Set
Actual Time 7:23 AM EST 4:38 PM EST
Civil Twilight 6:52 AM EST 5:10 PM EST
Nautical Twilight 6:18 AM EST 5:44 PM EST
Astronomical Twilight 5:44 AM EST 6:18 PM EST
Moon 7:09 PM EST (12/30) 8:30 AM EST (12/30)
Length of Visible Light 10h 17m
Length of Day
9h 15m
Waning Gibbous, 95% of the Moon is Illuminated
Dec 30
Waning Gibbous
Jan 4
Last Quarter
Jan 11
New
Jan 18
First Quarter
Jan 26
Full

Hourly Weather History & Observations

Time (EST) Temp. Windchill Dew Point Humidity Pressure Visibility Wind Dir Wind Speed Gust Speed Precip Events Conditions
12:09 AM 30.2 °F 21.9 °F 21.2 °F 69% 29.60 in 10.0 mi NW 9.2 mph 20.7 mph N/A   Mostly Cloudy
12:32 AM 30.2 °F 21.9 °F 21.2 °F 69% 29.61 in 8.0 mi NNW 9.2 mph 24.2 mph N/A   Scattered Clouds
12:53 AM 30.9 °F 22.8 °F 21.0 °F 67% 29.64 in 10.0 mi NNW 9.2 mph 25.3 mph N/A   Mostly Cloudy
1:17 AM 30.2 °F 23.4 °F 19.4 °F 64% 29.63 in 10.0 mi Variable 6.9 mph 17.3 mph N/A   Scattered Clouds
1:53 AM 30.0 °F 22.4 °F 19.9 °F 66% 29.67 in 10.0 mi WNW 8.1 mph 20.7 mph N/A   Scattered Clouds
2:53 AM 30.0 °F 19.5 °F 17.1 °F 59% 29.70 in 10.0 mi WNW 13.8 mph 24.2 mph N/A   Clear
3:53 AM 28.9 °F 17.3 °F 17.1 °F 61% 29.74 in 10.0 mi WNW 16.1 mph 25.3 mph N/A   Overcast
4:53 AM 28.0 °F 19.3 °F 16.0 °F 61% 29.76 in 10.0 mi WNW 9.2 mph 20.7 mph N/A   Overcast
5:53 AM 28.0 °F 18.1 °F 16.0 °F 61% 29.78 in 10.0 mi WNW 11.5 mph 17.3 mph N/A   Overcast
6:53 AM 28.0 °F 21.7 °F 16.0 °F 61% 29.81 in 10.0 mi WNW 5.8 mph - N/A   Overcast
7:53 AM 28.9 °F 21.1 °F 16.0 °F 58% 29.85 in 10.0 mi NW 8.1 mph 19.6 mph N/A   Overcast
8:53 AM 28.9 °F 18.6 °F 15.1 °F 56% 29.89 in 10.0 mi WNW 12.7 mph 18.4 mph N/A   Overcast
9:53 AM 30.0 °F 18.7 °F 14.0 °F 51% 29.93 in 10.0 mi NW 16.1 mph 29.9 mph N/A   Scattered Clouds
10:53 AM 30.0 °F 19.5 °F 10.9 °F 45% 29.96 in 10.0 mi NW 13.8 mph 31.1 mph N/A   Clear
11:53 AM 30.9 °F 22.8 °F 12.0 °F 46% 29.96 in 10.0 mi WNW 9.2 mph 18.4 mph N/A   Clear
12:53 PM 32.0 °F 21.2 °F 10.9 °F 42% 29.96 in 10.0 mi NNW 16.1 mph 28.8 mph N/A   Scattered Clouds
1:53 PM 32.0 °F 24.8 °F 10.0 °F 40% 29.98 in 10.0 mi WNW 8.1 mph 26.5 mph N/A   Scattered Clouds
2:53 PM 30.9 °F 19.8 °F 10.9 °F 43% 30.01 in 10.0 mi NW 16.1 mph 32.2 mph N/A   Clear
3:53 PM 30.0 °F 19.5 °F 12.0 °F 47% 30.05 in 10.0 mi WNW 13.8 mph 24.2 mph N/A   Clear
4:53 PM 28.9 °F 20.4 °F 10.9 °F 47% 30.09 in 10.0 mi NW 9.2 mph 20.7 mph N/A   Clear
5:53 PM 28.0 °F 24.2 °F 12.0 °F 51% 30.14 in 10.0 mi Variable 3.5 mph - N/A   Scattered Clouds
6:53 PM 28.0 °F 22.8 °F 12.0 °F 51% 30.17 in 10.0 mi Variable 4.6 mph 20.7 mph N/A   Mostly Cloudy
7:53 PM 27.0 °F 21.6 °F 12.0 °F 53% 30.17 in 10.0 mi Variable 4.6 mph - N/A   Scattered Clouds
8:53 PM 27.0 °F 23.0 °F 12.0 °F 53% 30.18 in 10.0 mi Variable 3.5 mph - N/A   Scattered Clouds
9:53 PM 26.1 °F 19.4 °F 12.9 °F 58% 30.17 in 10.0 mi North 5.8 mph - N/A   Partly Cloudy
10:53 PM 25.0 °F 19.3 °F 12.9 °F 60% 30.17 in 10.0 mi North 4.6 mph - N/A   Clear
11:53 PM 21.0 °F - 10.9 °F 65% 30.17 in 10.0 mi Calm Calm - N/A   Clear